Location: Dal�� Lhota
(48.7500°N, 14.0167°E)
Time: 02:57:00
(UTC+00:00)

Transit 2A - Pass Details

Date: 01 August 2021
Orbit: 594 x 964 km, 66.7° (Epoch: 27 September)

Event Time Altitude Azimuth Distance (km) Brightness Sun altitude
Rises 10:27:59 0° 321° (NW) 3,072 8.8 58.0°
Reaches altitude 10° 10:31:57 10° 354° (N) 2,246 8.2 58.2°
Maximum altitude 10:33:49 12° 15° (NNE) 2,164 8.2 58.3°
Drops below altitude 10° 10:35:45 10° 37° (NE) 2,336 8.4 58.4°
Sets 10:40:06 0° 68° (ENE) 3,370 9.3 58.5°
